When you browse on this site, cookies collect data to enhance your experience and personalize the content and advertising you see.
Visit our Privacy Policy to learn more. By continuing to use the site, you agree to this use of cookies and data.
  • en France
  • Liste des pays
  • À 7 jours
  • Température de l'eau
  • Carte météo
  • Widgets météo
  • user-avatar
    Se connecter

    Météo par heure à Safaga

    Ce jour, 21 Août, Mercredi

    Heure Température Précipitation Vent Pression Humidité
    00:00 +27°C° 0 mm 4 m/s 702 mmHg 23%
    01:00 +26°C° 0 mm 3 m/s 702 mmHg 25%
    02:00 +25°C° 0 mm 3 m/s 701 mmHg 26%
    03:00 +25°C° 0 mm 3 m/s 701 mmHg 28%
    04:00 +24°C° 0 mm 2 m/s 701 mmHg 30%
    05:00 +23°C° 0 mm 2 m/s 701 mmHg 32%
    06:00 +26°C° 0 mm 2 m/s 702 mmHg 27%
    07:00 +29°C° 0 mm 1 m/s 703 mmHg 22%
    08:00 +32°C° 0 mm 1 m/s 703 mmHg 17%
    09:00 +35°C° 0 mm 2 m/s 704 mmHg 14%
    10:00 +37°C° 0 mm 2 m/s 704 mmHg 12%
    11:00 +39°C° 0 mm 3 m/s 704 mmHg 9%
    12:00 +40°C° 0 mm 4 m/s 703 mmHg 10%
    13:00 +41°C° 0 mm 5 m/s 703 mmHg 10%
    14:00 +42°C° 0 mm 6 m/s 702 mmHg 11%
    15:00 +41°C° 0 mm 5 m/s 702 mmHg 12%
    16:00 +40°C° 0 mm 5 m/s 702 mmHg 13%
    17:00 +40°C° 0 mm 4 m/s 701 mmHg 14%
    18:00 +36°C° 0 mm 3 m/s 701 mmHg 20%
    19:00 +32°C° 0 mm 2 m/s 701 mmHg 25%
    20:00 +29°C° 0 mm 1 m/s 700 mmHg 31%
    21:00 +28°C° 0 mm 1 m/s 700 mmHg 31%
    22:00 +28°C° 0 mm 2 m/s 700 mmHg 31%
    23:00 +27°C° 0 mm 2 m/s 700 mmHg 30%

    Demain, 22 Août, Jeudi

    Heure Température Précipitation Vent Pression Humidité
    00:00 +27°C° 0 mm 2 m/s 700 mmHg 31%
    01:00 +26°C° 0 mm 2 m/s 700 mmHg 32%
    02:00 +25°C° 0 mm 2 m/s 699 mmHg 32%
    03:00 +25°C° 0 mm 1 m/s 699 mmHg 33%
    04:00 +24°C° 0 mm 1 m/s 699 mmHg 34%
    05:00 +24°C° 0 mm 1 m/s 699 mmHg 35%
    06:00 +27°C° 0 mm 1 m/s 700 mmHg 30%
    07:00 +30°C° 0 mm 1 m/s 701 mmHg 25%
    08:00 +33°C° 0 mm 1 m/s 701 mmHg 20%
    09:00 +35°C° 0 mm 1 m/s 701 mmHg 18%
    10:00 +37°C° 0 mm 2 m/s 702 mmHg 15%
    11:00 +39°C° 0 mm 2 m/s 702 mmHg 13%
    12:00 +40°C° 0 mm 3 m/s 701 mmHg 12%
    13:00 +42°C° 0 mm 4 m/s 701 mmHg 12%
    14:00 +43°C° 0 mm 5 m/s 701 mmHg 11%
    15:00 +42°C° 0 mm 4 m/s 700 mmHg 12%
    16:00 +40°C° 0 mm 3 m/s 700 mmHg 13%
    17:00 +40°C° 0 mm 2 m/s 699 mmHg 14%
    18:00 +37°C° 0 mm 2 m/s 699 mmHg 19%
    19:00 +34°C° 0 mm 2 m/s 700 mmHg 24%
    20:00 +31°C° 0 mm 2 m/s 700 mmHg 28%
    21:00 +30°C° 0 mm 2 m/s 700 mmHg 29%
    22:00 +29°C° 0 mm 2 m/s 700 mmHg 30%
    23:00 +28°C° 0 mm 1 m/s 699 mmHg 31%

    Après-demain, 23 Août, Vendredi

    Heure Température Précipitation Vent Pression Humidité
    00:00 +27°C° 0 mm 1 m/s 699 mmHg 32%
    01:00 +26°C° 0 mm 1 m/s 699 mmHg 34%
    02:00 +24°C° 0 mm 0 m/s 698 mmHg 35%
    03:00 +23°C° 0 mm 0 m/s 698 mmHg 36%
    04:00 +23°C° 0 mm 0 m/s 698 mmHg 36%
    05:00 +22°C° 0 mm 0 m/s 698 mmHg 37%
    06:00 +27°C° 0 mm 1 m/s 699 mmHg 32%
    07:00 +30°C° 0 mm 1 m/s 700 mmHg 27%
    08:00 +33°C° 0 mm 1 m/s 700 mmHg 22%
    09:00 +36°C° 0 mm 2 m/s 701 mmHg 19%
    10:00 +38°C° 0 mm 3 m/s 701 mmHg 16%
    11:00 +41°C° 0 mm 4 m/s 701 mmHg 14%
    12:00 +41°C° 0 mm 4 m/s 701 mmHg 13%
    13:00 +42°C° 0 mm 4 m/s 701 mmHg 12%
    14:00 +43°C° 0 mm 4 m/s 700 mmHg 11%
    15:00 +42°C° 0 mm 4 m/s 700 mmHg 12%
    16:00 +41°C° 0 mm 4 m/s 700 mmHg 13%
    17:00 +40°C° 0 mm 3 m/s 700 mmHg 15%
    18:00 +37°C° 0 mm 3 m/s 699 mmHg 20%
    19:00 +34°C° 0 mm 2 m/s 699 mmHg 25%
    20:00 +30°C° 0 mm 2 m/s 699 mmHg 30%
    21:00 +30°C° 0 mm 2 m/s 699 mmHg 33%
    22:00 +29°C° 0 mm 1 m/s 699 mmHg 35%
    23:00 +28°C° 0 mm 1 m/s 699 mmHg 37%

    24 Août, Samedi

    Heure Température Précipitation Vent Pression Humidité
    00:00 +27°C° 0 mm 1 m/s 699 mmHg 39%
    01:00 +24°C° 0 mm 0 m/s 699 mmHg 40%
    02:00 +24°C° 0 mm 0 m/s 698 mmHg 42%
    03:00 +23°C° 0 mm 0 m/s 698 mmHg 44%
    04:00 +23°C° 0 mm 0 m/s 699 mmHg 46%
    05:00 +23°C° 0 mm 0 m/s 699 mmHg 48%
    06:00 +27°C° 0 mm 1 m/s 700 mmHg 42%
    07:00 +30°C° 0 mm 1 m/s 700 mmHg 36%
    08:00 +33°C° 0 mm 1 m/s 701 mmHg 30%
    09:00 +36°C° 0 mm 2 m/s 702 mmHg 25%
    10:00 +38°C° 0 mm 3 m/s 702 mmHg 20%
    11:00 +41°C° 0 mm 4 m/s 702 mmHg 15%
    12:00 +41°C° 0 mm 4 m/s 702 mmHg 15%
    13:00 +42°C° 0 mm 4 m/s 702 mmHg 16%
    14:00 +42°C° 0 mm 5 m/s 701 mmHg 16%
    15:00 +41°C° 0 mm 4 m/s 701 mmHg 17%
    16:00 +40°C° 0 mm 3 m/s 701 mmHg 17%
    17:00 +39°C° 0 mm 3 m/s 701 mmHg 18%
    18:00 +36°C° 0 mm 2 m/s 700 mmHg 25%
    19:00 +34°C° 0 mm 2 m/s 700 mmHg 32%
    20:00 +30°C° 0 mm 1 m/s 700 mmHg 38%
    21:00 +29°C° 0 mm 1 m/s 700 mmHg 38%
    22:00 +29°C° 0 mm 1 m/s 700 mmHg 38%
    23:00 +28°C° 0 mm 1 m/s 700 mmHg 38%

    25 Août, Dimanche

    Heure Température Précipitation Vent Pression Humidité
    00:00 +28°C° 0 mm 1 m/s 700 mmHg 39%
    01:00 +27°C° 0 mm 1 m/s 700 mmHg 40%
    02:00 +27°C° 0 mm 1 m/s 699 mmHg 40%
    03:00 +27°C° 0 mm 1 m/s 700 mmHg 42%
    04:00 +26°C° 0 mm 1 m/s 700 mmHg 44%
    05:00 +26°C° 0 mm 1 m/s 700 mmHg 46%
    06:00 +29°C° 0 mm 1 m/s 701 mmHg 40%
    07:00 +31°C° 0 mm 1 m/s 701 mmHg 34%
    08:00 +33°C° 0 mm 1 m/s 702 mmHg 28%
    09:00 +35°C° 0 mm 1 m/s 702 mmHg 24%
    10:00 +38°C° 0 mm 2 m/s 703 mmHg 20%
    11:00 +40°C° 0 mm 2 m/s 703 mmHg 16%
    12:00 +42°C° 0 mm 3 m/s 702 mmHg 16%
    13:00 +42°C° 0 mm 4 m/s 702 mmHg 16%
    14:00 +43°C° 0 mm 4 m/s 702 mmHg 15%
    15:00 +42°C° 0 mm 4 m/s 701 mmHg 17%
    16:00 +41°C° 0 mm 4 m/s 701 mmHg 18%
    17:00 +39°C° 0 mm 3 m/s 700 mmHg 19%
    18:00 +37°C° 0 mm 3 m/s 700 mmHg 23%
    19:00 +35°C° 0 mm 2 m/s 700 mmHg 26%
    20:00 +32°C° 0 mm 2 m/s 700 mmHg 30%
    21:00 +31°C° 0 mm 2 m/s 700 mmHg 31%
    22:00 +30°C° 0 mm 1 m/s 700 mmHg 31%
    23:00 +29°C° 0 mm 1 m/s 700 mmHg 32%

    26 Août, Lundi

    Heure Température Précipitation Vent Pression Humidité
    00:00 +29°C° 0 mm 1 m/s 700 mmHg 33%
    01:00 +28°C° 0 mm 1 m/s 700 mmHg 34%
    02:00 +26°C° 0 mm 0 m/s 700 mmHg 35%
    03:00 +27°C° 0 mm 1 m/s 700 mmHg 36%
    04:00 +27°C° 0 mm 1 m/s 700 mmHg 37%
    05:00 +27°C° 0 mm 1 m/s 700 mmHg 38%
    06:00 +30°C° 0 mm 1 m/s 701 mmHg 32%
    07:00 +33°C° 0 mm 1 m/s 701 mmHg 27%
    08:00 +36°C° 0 mm 1 m/s 702 mmHg 21%
    09:00 +38°C° 0 mm 2 m/s 702 mmHg 19%
    10:00 +40°C° 0 mm 2 m/s 703 mmHg 16%
    11:00 +43°C° 0 mm 3 m/s 703 mmHg 14%
    12:00 +43°C° 0 mm 3 m/s 703 mmHg 13%
    13:00 +44°C° 0 mm 4 m/s 702 mmHg 12%
    14:00 +46°C° 0 mm 5 m/s 702 mmHg 12%
    15:00 +44°C° 0 mm 4 m/s 702 mmHg 12%
    16:00 +43°C° 0 mm 4 m/s 701 mmHg 13%
    17:00 +42°C° 0 mm 3 m/s 701 mmHg 13%
    18:00 +38°C° 0 mm 2 m/s 701 mmHg 18%
    19:00 +36°C° 0 mm 2 m/s 701 mmHg 22%
    20:00 +32°C° 0 mm 1 m/s 701 mmHg 26%
    21:00 +31°C° 0 mm 2 m/s 701 mmHg 26%
    22:00 +31°C° 0 mm 2 m/s 701 mmHg 26%
    23:00 +31°C° 0 mm 2 m/s 701 mmHg 26%
    Voir plus